EW4210 Weather Reports


time (UTC)temp
F
wind
direction
speed
knots
gust
knots
rain 1hr
in
rain 24hr
in
rain mn
in
humidity
%
barometer
mb
20260510094533 62 114 0.0 0.0 0.00 0.00 0.00 91 1012.9
20260510093032 62 114 0.0 0.0 0.00 0.00 0.00 91 1013.0
20260510091556 62 114 0.0 0.0 0.00 0.00 0.00 92 1012.7
20260510090050 62 114 0.0 0.0 0.00 0.00 0.00 92 1012.6
20260510084521 62 114 0.0 0.0 0.00 0.00 0.00 91 1012.7
20260510083006 62 114 0.0 0.0 0.00 0.00 0.00 90 1012.5
20260510081545 61 114 0.0 0.0 0.00 0.00 0.00 89 1012.4
20260510080025 62 114 0.0 0.0 0.00 0.00 0.00 89 1012.2
20260510074508 62 114 0.0 0.0 0.00 0.00 0.00 88 1012.1
20260510073044 63 114 0.0 0.0 0.00 0.00 0.00 88 1012.0
20260510071523 63 114 0.0 0.0 0.00 0.00 0.00 86 1012.0
20260510070100 64 114 0.0 0.0 0.00 0.00 0.00 85 1012.0
20260510070003 64 114 0.0 0.0 0.00 0.00 0.00 85 1012.1
20260510064547 64 114 0.0 0.0 0.00 0.00 0.00 84 1012.2
20260510063015 64 114 0.0 0.0 0.00 0.00 0.00 83 1012.0
20260510061559 65 114 0.0 0.0 0.00 0.00 0.00 81 1012.0
20260510060035 66 114 0.0 0.0 0.00 0.00 0.00 80 1012.3
20260510054521 66 114 0.0 0.0 0.00 0.00 0.00 78 1012.2
20260510053007 67 114 0.0 0.0 0.00 0.00 0.00 77 1012.1
20260510051541 67 114 0.0 1.7 0.00 0.00 0.00 75 1011.8
20260510050024 68 114 0.0 1.7 0.00 0.00 0.00 73 1011.5
20260510044627 69 110 0.9 2.6 0.00 0.00 0.00 72 1011.5
20260510043035 70 83 0.9 3.5 0.00 0.00 0.00 70 1011.5
20260510041518 70 82 0.9 3.5 0.00 0.00 0.00 69 1011.5
20260510040057 70 82 1.7 3.5 0.00 0.00 0.00 68 1011.4
20260510040002 70 104 0.9 3.5 0.00 0.00 0.00 68 1011.4
20260510034543 70 89 0.9 2.6 0.00 0.00 0.00 68 1011.3
20260510033024 71 105 0.9 2.6 0.00 0.00 0.00 67 1011.4
20260510031507 71 117 0.0 2.6 0.00 0.00 0.00 67 1011.1
20260510030047 71 117 0.9 2.6 0.00 0.00 0.00 66 1010.9
20260510024536 72 99 0.9 2.6 0.00 0.00 0.00 65 1010.7
20260510023009 72 144 0.0 0.9 0.00 0.00 0.00 65 1010.6
20260510021553 73 89 0.0 3.5 0.00 0.00 0.00 64 1010.4
20260510020037 73 103 1.7 2.6 0.00 0.00 0.00 63 1010.3
20260510014527 74 86 0.9 3.5 0.00 0.00 0.00 63 1010.0
20260510013015 74 123 0.9 3.5 0.00 0.00 0.00 61 1009.9
20260510011600 75 109 0.9 2.6 0.00 0.00 0.00 61 1009.9
20260510011501 75 109 0.0 2.6 0.00 0.00 0.00 61 1009.9
20260510010107 76 83 0.9 3.5 0.00 0.00 0.00 60 1009.6
20260510004532 76 112 0.0 2.6 0.00 0.00 0.00 59 1009.6
20260510003023 77 111 0.9 3.5 0.00 0.00 0.00 57 1009.5
20260510001505 78 117 0.9 7.0 0.00 0.00 0.00 55 1009.4
20260510000046 79 90 0.9 6.1 0.00 0.00 0.00 55 1009.2
20260509234533 79 89 1.7 6.1 0.00 0.00 0.00 54 1009.0
20260509233022 80 94 0.9 2.6 0.00 0.00 0.00 44 1009.1
20260509231504 80 71 0.0 3.5 0.00 0.00 0.00 44 1009.0
20260509230045 80 37 0.0 2.6 0.00 0.00 0.00 43 1008.9
20260509224532 81 105 0.0 4.3 0.00 0.00 0.00 41 1008.8
20260509223015 81 146 0.0 3.5 0.00 0.00 0.00 38 1008.8
20260509221553 81 99 0.0 2.6 0.00 0.00 0.00 39 1008.8
20260509220041 81 58 0.9 2.6 0.00 0.00 0.00 42 1008.7
20260509214519 82 136 0.9 5.2 0.00 0.00 0.00 39 1008.6
20260509213058 82 68 0.9 7.0 0.00 0.00 0.00 39 1008.6
20260509211544 82 76 0.0 1.7 0.00 0.00 0.00 42 1008.8
20260509210026 82 69 0.9 5.2 0.00 0.00 0.00 39 1008.9
20260509204506 82 220 0.9 6.1 0.00 0.00 0.00 37 1009.0
20260509203058 82 168 0.9 5.2 0.00 0.00 0.00 42 1009.2
20260509201520 82 94 0.9 5.2 0.00 0.00 0.00 43 1009.6
20260509200109 82 67 0.9 2.6 0.00 0.00 0.00 42 1009.6
20260509200002 82 333 0.9 2.6 0.00 0.00 0.00 43 1009.7
20260509194545 82 83 1.7 3.5 0.00 0.00 0.00 44 1009.7
20260509193021 81 348 0.0 2.6 0.00 0.00 0.00 40 1009.7
20260509191615 82 63 0.9 2.6 0.00 0.00 0.00 43 1009.8
20260509191502 82 89 1.7 3.5 0.00 0.00 0.00 43 1009.8
20260509190040 81 102 1.7 6.1 0.00 0.00 0.00 48 1009.9
20260509184526 80 9 1.7 3.5 0.00 0.00 0.00 50 1009.9
20260509183056 81 123 1.7 3.5 0.00 0.00 0.00 51 1010.0
20260509181539 80 95 0.9 3.5 0.00 0.00 0.00 53 1010.1
20260509180020 80 92 0.9 2.6 0.00 0.00 0.00 58 1010.2
20260509174506 79 299 0.9 2.6 0.00 0.00 0.00 55 1010.2
20260509173043 79 284 0.0 2.6 0.00 0.00 0.00 61 1010.4
20260509171528 78 124 1.7 3.5 0.00 0.00 0.00 61 1010.5
20260509170006 77 148 1.7 3.5 0.00 0.00 0.00 62 1010.4
20260509164554 76 336 1.7 2.6 0.00 0.00 0.00 63 1010.4
20260509163025 75 296 0.0 3.5 0.00 0.00 0.00 69 1010.4
20260509161506 74 305 0.9 3.5 0.00 0.00 0.00 71 1010.4
20260509160042 74 286 0.9 2.6 0.00 0.00 0.00 70 1010.4
20260509154524 72 326 0.9 2.6 0.00 0.00 0.00 72 1010.4
20260509153057 72 341 0.9 2.6 0.00 0.00 0.00 74 1010.5
20260509153011 72 341 0.9 2.6 0.00 0.00 0.00 75 1010.5
20260509151539 71 290 0.9 4.3 0.00 0.00 0.00 75 1010.5
20260509150022 71 288 0.9 2.6 0.00 0.00 0.00 73 1010.4
20260509144559 71 198 0.0 2.6 0.00 0.00 0.00 76 1010.6
20260509143039 70 288 0.9 1.7 0.00 0.00 0.00 76 1010.7
20260509141515 68 192 0.0 2.6 0.00 0.00 0.00 80 1010.7
20260509140047 67 138 0.0 1.7 0.00 0.00 0.00 83 1010.7
20260509134520 65 285 0.0 3.5 0.00 0.00 0.00 85 1010.7
20260509133008 63 281 0.9 2.6 0.00 0.00 0.00 88 1010.8
20260509131548 63 244 0.0 1.7 0.00 0.00 0.00 91 1010.7
20260509130037 61 238 0.0 0.9 0.00 0.00 0.00 94 1010.6
20260509124503 60 249 0.0 0.0 0.00 0.00 0.00 96 1010.5
20260509123039 60 249 0.0 0.0 0.00 0.00 0.00 96 1010.2
20260509121525 59 249 0.0 0.0 0.00 0.00 0.00 96 1010.0
20260509120059 58 249 0.0 0.0 0.00 0.00 0.00 96 1009.6
20260509114540 58 249 0.0 0.0 0.00 0.00 0.00 96 1009.4
20260509113017 57 249 0.0 0.0 0.00 0.00 0.00 96 1009.2
20260509111551 57 249 0.0 0.0 0.00 0.00 0.00 95 1009.0
20260509110030 57 249 0.0 0.0 0.00 0.00 0.00 94 1008.8
20260509104515 57 249 0.0 0.0 0.00 0.00 0.00 94 1008.6
20260509103101 58 249 0.0 0.0 0.00 0.00 0.00 94 1008.5
20260509101539 58 249 0.0 0.0 0.00 0.00 0.00 94 1008.6
20260509100023 58 249 0.0 0.0 0.00 0.00 0.00 94 1008.5